Simultaneous Nadir Overpasses (SNOs) Predictions

Prediction of SNOs between GOES-15 and NPP Satellite Orbit:

Table of predicted SNOs for the next 14.0 days since TLE Epoch: 4/6/2017
Index Date Time (GOES-15) GOES-15 Lat,Lon NPP Lat,Lon Distance(km) Time Diff (sec)
1 04/07/2017 22:36:17 -0.06,-135.37 -0.51,-137.42 233.35 80
2 04/08/2017 22:14:52 -0.06,-135.39 0.50,-132.89 285.01 80
3 04/10/2017 10:36:40 0.07,-135.40 0.68,-138.16 315.00 80
4 04/11/2017 10:20:36 0.06,-135.41 -0.32,-133.63 203.26 80
5 04/12/2017 22:42:33 -0.07,-135.46 -0.83,-138.94 396.08 80
6 04/13/2017 22:21:09 -0.07,-135.48 0.18,-134.41 121.68 80
7 04/15/2017 10:42:57 0.07,-135.47 1.00,-139.68 479.68 80
8 04/16/2017 10:26:53 0.07,-135.48 -0.00,-135.15 37.81 80
9 04/18/2017 22:30:04 -0.07,-135.53 -0.19,-135.92 45.54 80
10 04/19/2017 22:08:40 -0.08,-135.53 0.82,-131.39 471.42 80




NCC Satellite Simultaneous Nadir Overpasses (SNOs) Prediction Service
